TimeEDT,TemperatureF,Dew PointF,Humidity,Sea Level PressureIn,VisibilityMPH,Wind Direction,Wind SpeedMPH,Gust SpeedMPH,PrecipitationIn,Events,Conditions,WindDirDegrees,DateUTC
12:53 AM,63.0,57.9,84,29.76,10.0,South,15.0,21.9,N/A,,Scattered Clouds,170,2013-09-22 04:53:00
1:53 AM,62.1,57.9,86,29.73,10.0,South,11.5,-,N/A,,Scattered Clouds,170,2013-09-22 05:53:00
2:16 AM,62.6,57.2,82,29.73,10.0,South,10.4,-,N/A,,Mostly Cloudy,170,2013-09-22 06:16:00
2:53 AM,63.0,57.9,84,29.71,10.0,South,11.5,-,N/A,,Overcast,180,2013-09-22 06:53:00
3:38 AM,62.6,60.8,94,29.69,10.0,South,11.5,-,0.00,Rain,Light Rain,180,2013-09-22 07:38:00
3:53 AM,63.0,60.1,90,29.68,9.0,South,12.7,21.9,0.00,,Overcast,170,2013-09-22 07:53:00
4:53 AM,64.0,61.0,90,29.67,6.0,South,13.8,21.9,0.02,Rain,Light Rain,180,2013-09-22 08:53:00
5:53 AM,64.9,63.0,93,29.65,3.0,South,18.4,31.1,0.13,Rain,Heavy Rain,180,2013-09-22 09:53:00
6:53 AM,64.9,62.1,90,29.63,10.0,South,17.3,23.0,0.09,,Overcast,170,2013-09-22 10:53:00
7:02 AM,64.4,62.6,94,29.63,10.0,South,17.3,25.3,N/A,,Overcast,180,2013-09-22 11:02:00
7:53 AM,64.9,62.1,90,29.62,10.0,South,16.1,-,0.01,,Overcast,170,2013-09-22 11:53:00
8:24 AM,64.4,62.6,94,29.61,10.0,South,15.0,23.0,N/A,,Overcast,170,2013-09-22 12:24:00
8:53 AM,66.0,62.1,87,29.61,10.0,South,18.4,29.9,N/A,,Overcast,170,2013-09-22 12:53:00
9:45 AM,66.2,62.6,88,29.61,1.8,South,18.4,25.3,0.06,Rain,Rain,190,2013-09-22 13:45:00
9:53 AM,64.9,63.0,93,29.61,2.5,South,17.3,26.5,0.09,Rain,Rain,190,2013-09-22 13:53:00
10:01 AM,64.4,62.6,94,29.61,3.0,South,18.4,26.5,0.01,Rain,Light Rain,180,2013-09-22 14:01:00
10:53 AM,64.9,62.1,90,29.60,10.0,South,12.7,-,0.05,Rain,Light Rain,170,2013-09-22 14:53:00
11:00 AM,64.4,62.6,94,29.61,10.0,South,13.8,19.6,0.00,Rain,Light Rain,170,2013-09-22 15:00:00
11:13 AM,64.4,62.6,94,29.61,10.0,South,13.8,21.9,0.00,,Overcast,180,2013-09-22 15:13:00
11:53 AM,64.9,63.0,93,29.60,10.0,South,10.4,-,0.01,,Overcast,170,2013-09-22 15:53:00
12:00 PM,64.4,62.6,94,29.61,10.0,South,11.5,-,N/A,,Overcast,170,2013-09-22 16:00:00
12:53 PM,64.0,61.0,90,29.61,10.0,South,16.1,24.2,N/A,,Overcast,180,2013-09-22 16:53:00
1:28 PM,64.4,62.6,94,29.61,4.0,South,11.5,-,0.01,Rain,Light Rain,180,2013-09-22 17:28:00
1:53 PM,64.0,61.0,90,29.59,10.0,South,8.1,-,0.02,,Overcast,170,2013-09-22 17:53:00
2:39 PM,64.4,62.6,94,29.60,10.0,South,9.2,-,0.00,,Overcast,170,2013-09-22 18:39:00
2:53 PM,64.9,61.0,87,29.59,10.0,South,8.1,-,0.00,,Overcast,170,2013-09-22 18:53:00
3:07 PM,66.2,62.6,88,29.59,10.0,South,11.5,-,N/A,,Mostly Cloudy,180,2013-09-22 19:07:00
3:53 PM,66.9,61.0,81,29.58,10.0,SSE,9.2,-,N/A,,Mostly Cloudy,160,2013-09-22 19:53:00
4:53 PM,66.9,60.1,79,29.57,10.0,South,12.7,-,N/A,,Mostly Cloudy,170,2013-09-22 20:53:00
5:53 PM,63.0,57.0,81,29.60,10.0,NNW,13.8,-,N/A,,Mostly Cloudy,330,2013-09-22 21:53:00
5:59 PM,62.6,57.2,82,29.61,10.0,NW,9.2,-,N/A,,Mostly Cloudy,320,2013-09-22 21:59:00
6:53 PM,60.1,57.0,90,29.63,10.0,Calm,Calm,-,N/A,,Overcast,0,2013-09-22 22:53:00
7:53 PM,60.1,52.0,75,29.65,10.0,NW,13.8,-,N/A,,Overcast,310,2013-09-22 23:53:00
8:53 PM,59.0,50.0,72,29.67,10.0,WNW,10.4,18.4,N/A,,Overcast,300,2013-09-23 00:53:00
9:53 PM,57.0,48.9,74,29.68,10.0,WNW,8.1,16.1,N/A,,Overcast,300,2013-09-23 01:53:00
10:53 PM,55.9,48.0,75,29.70,10.0,WNW,8.1,-,N/A,,Overcast,300,2013-09-23 02:53:00
11:53 PM,54.0,46.0,75,29.71,10.0,NW,5.8,-,N/A,,Mostly Cloudy,310,2013-09-23 03:53:00